Home > Weather > Kinshasa > Past weeks

Flag for Dem. Rep. Congo Weather for the Past 2 Weeks in Kinshasa, Dem. Rep. Congo

Now
73 °F

Clear.


Feels Like: 72 °F
Forecast: 76 / 89 °F
Wind: 1 mph from North

Location: Brazzaville / Maya-Maya

Current Time: Feb 6, 2016 at 12:18:35 AM

Latest Report: Feb 5, 2016 at 11:00 PM


Visibility: 5 mi

Pressure: 29.98 "Hg

Humidity: 89%

Dew point: 70 °F

Location of KinshasaLocation

Historic Weather in Kinshasa — Graph

°F

Kinshasa Temperature Yesterday

Maximum temperature yesterday: 84 °F (at 12:00 AM)
Minimum temperature yesterday: 72 °F (at 11:48 AM)
Average temperature yesterday: 76 °F

High & Low Weather Summary for the Past Weeks

 TemperatureHumidityPressure
High95 °F (Jan 30, 3:00 PM)100% (Feb 5, 11:48 AM)30.07 "Hg (Feb 5, 11:48 AM)
Low72 °F (Feb 5, 11:48 AM)39% (Jan 30, 3:00 PM)29.77 "Hg (Jan 30, 4:00 PM)
Average82 °F74%29.92 "Hg
* Reported Jan 21 11:00 PM — Feb 5 11:00 PM, Kinshasa, Weather by CustomWeather, © 2016

Note: Actual official high and low records may vary slightly from our data, if they occured in-between our weather recording intervals... More about our weather records

Advertising

Kinshasa Weather History for the Previous 24 Hours

 ConditionsComfort  
Time TempWeatherWind HumidityBarometerVisibility
11:00 PM
Fri, Feb 5
73 °FClear.1 mph89%29.98 "Hg5 mi
10:00 PM72 °FPassing clouds.2 mph94%29.95 "Hg5 mi
9:00 PM73 °FPassing clouds.5 mph89%29.95 "Hg5 mi
8:00 PM73 °FPassing clouds.2 mph89%29.92 "Hg6 mi
7:00 PM73 °FPassing clouds.6 mph89%29.86 "Hg6 mi
6:00 PM75 °FPassing clouds.7 mph89%29.83 "Hg5 mi
5:00 PM75 °FScattered clouds.5 mph83%29.86 "Hg6 mi
4:00 PM73 °FLight rain. Scattered clouds.6 mph89%29.86 "Hg6 mi
3:00 PM72 °FLight rain. Partly sunny.10 mph100%29.92 "Hg4 mi
2:00 PM72 °FThunderstorms. Broken clouds.6 mph100%29.95 "Hg4 mi
1:00 PM72 °FThunderstorms. Partly sunny.5 mph94%29.98 "Hg4 mi
12:00 PM72 °FHeavy rain. Scattered clouds.16 mph100%30.01 "Hg1 mi
11:48 AM72 °FHeavy rain. Scattered clouds.16 mph100%30.01 "Hg1 mi
11:00 AM77 °FScattered clouds.6 mph83%29.98 "Hg5 mi
10:00 AM79 °FPassing clouds.3 mph74%29.95 "Hg5 mi
9:00 AM75 °FThunderstorms. Passing clouds.5 mph83%29.95 "Hg5 mi
8:00 AM75 °FThunderstorms. Scattered clouds.3 mph78%29.95 "Hg5 mi
7:00 AM79 °FPartly sunny.3 mph84%29.89 "Hg6 mi
6:00 AM79 °FPassing clouds.No wind84%29.89 "Hg5 mi
5:00 AM81 °FClear.No wind79%29.86 "Hg5 mi
4:00 AM81 °FClear.No wind79%29.86 "Hg5 mi
3:00 AM81 °FClear.No wind79%29.83 "Hg5 mi
2:00 AM81 °FClear.No wind79%29.86 "Hg5 mi
1:00 AM82 °FClear.No wind74%29.86 "Hg5 mi
12:00 AM84 °FClear.No wind70%29.89 "Hg5 mi
Weather by CustomWeather, © 2016

See weather overviewHow to use our weather pages